| time (UTC) | temp C | wind direction | speed KPH | gust KPH | rain 1hr cm | rain 24hr cm | rain mn cm | humidity % | barometer mb |
| 20260508225618 | 17 | 0 | 4.8 | 14.5 | 0.00 | 0.00 | 0.00 | 46 | 1011.6 |
| 20260508225116 | 17 | 0 | 4.8 | 14.5 | 0.00 | 0.00 | 0.00 | 44 | 1011.6 |
| 20260508224615 | 17 | 0 | 6.4 | 16.1 | 0.00 | 0.00 | 0.00 | 44 | 1011.6 |
| 20260508224116 | 17 | 0 | 8.0 | 16.1 | 0.00 | 0.00 | 0.00 | 45 | 1011.6 |
| 20260508223616 | 17 | 0 | 8.0 | 19.3 | 0.00 | 0.00 | 0.00 | 45 | 1011.6 |
| 20260508223115 | 18 | 215 | 8.0 | 19.3 | 0.00 | 0.00 | 0.00 | 43 | 1011.6 |
| 20260508222616 | 18 | 0 | 6.4 | 17.7 | 0.00 | 0.00 | 0.00 | 45 | 1011.7 |
| 20260508222117 | 18 | 103 | 6.4 | 17.7 | 0.00 | 0.00 | 0.00 | 43 | 1011.6 |
| 20260508221615 | 18 | 0 | 8.0 | 19.3 | 0.00 | 0.00 | 0.00 | 46 | 1011.7 |
| 20260508221113 | 18 | 0 | 9.7 | 19.3 | 0.00 | 0.00 | 0.00 | 44 | 1011.6 |
| 20260508220613 | 18 | 225 | 8.0 | 19.3 | 0.00 | 0.00 | 0.00 | 43 | 1011.7 |
| 20260508220346 | 18 | 0 | 6.4 | 19.3 | 0.00 | 0.00 | 0.00 | 44 | 1011.8 |
| 20260508215612 | 18 | 0 | 6.4 | 14.5 | 0.00 | 0.00 | 0.00 | 46 | 1011.8 |
| 20260508215113 | 18 | 122 | 4.8 | 12.9 | 0.00 | 0.00 | 0.00 | 45 | 1011.8 |
| 20260508214612 | 18 | 0 | 3.2 | 9.7 | 0.00 | 0.00 | 0.00 | 46 | 1011.9 |
| 20260508214112 | 18 | 0 | 3.2 | 9.7 | 0.00 | 0.00 | 0.00 | 47 | 1012.0 |
| 20260508213610 | 18 | 170 | 3.2 | 9.7 | 0.00 | 0.00 | 0.00 | 50 | 1012.1 |
| 20260508213339 | 17 | 97 | 1.6 | 4.8 | 0.00 | 0.00 | 0.00 | 52 | 1012.2 |
| 20260508212839 | 17 | 92 | 1.6 | 4.8 | 0.00 | 0.00 | 0.00 | 49 | 1012.1 |
| 20260508212108 | 17 | 92 | 3.2 | 4.8 | 0.00 | 0.00 | 0.00 | 45 | 1012.3 |
| 20260508211607 | 17 | 94 | 3.2 | 6.4 | 0.00 | 0.00 | 0.00 | 45 | 1012.5 |
| 20260508211107 | 17 | 111 | 3.2 | 6.4 | 0.00 | 0.00 | 0.00 | 45 | 1012.6 |
| 20260508210605 | 17 | 0 | 1.6 | 6.4 | 0.00 | 0.00 | 0.00 | 46 | 1012.3 |
| 20260508210340 | 16 | 319 | 1.6 | 4.8 | 0.00 | 0.00 | 0.00 | 49 | 1012.3 |
| 20260508205836 | 16 | 0 | 1.6 | 4.8 | 0.00 | 0.00 | 0.00 | 49 | 1012.3 |
| 20260508205104 | 16 | 326 | 0.0 | 4.8 | 0.00 | 0.00 | 0.00 | 48 | 1012.3 |
| 20260508204835 | 16 | 325 | 1.6 | 4.8 | 0.00 | 0.00 | 0.00 | 48 | 1012.3 |
| 20260508204102 | 15 | 338 | 1.6 | 4.8 | 0.00 | 0.00 | 0.00 | 51 | 1012.4 |
| 20260508203607 | 15 | 298 | 0.0 | 4.8 | 0.00 | 0.00 | 0.00 | 50 | 1012.5 |
| 20260508203603 | 15 | 298 | 0.0 | 1.6 | 0.00 | 0.00 | 0.00 | 50 | 1012.5 |
| 20260508202603 | 15 | 298 | 1.6 | 6.4 | 0.00 | 0.00 | 0.00 | 50 | 1012.5 |
| 20260508202102 | 15 | 0 | 3.2 | 6.4 | 0.00 | 0.00 | 0.00 | 51 | 1012.6 |
| 20260508201600 | 15 | 0 | 1.6 | 4.8 | 0.00 | 0.00 | 0.00 | 50 | 1012.8 |
| 20260508201059 | 15 | 0 | 1.6 | 4.8 | 0.00 | 0.00 | 0.00 | 50 | 1012.8 |
| 20260508200600 | 15 | 331 | 3.2 | 6.4 | 0.00 | 0.00 | 0.00 | 49 | 1012.9 |
| 20260508200104 | 15 | 327 | 3.2 | 6.4 | 0.00 | 0.00 | 0.00 | 49 | 1013.0 |
| 20260508195559 | 15 | 317 | 1.6 | 6.4 | 0.00 | 0.00 | 0.00 | 50 | 1012.9 |
| 20260508195058 | 15 | 271 | 1.6 | 8.0 | 0.00 | 0.00 | 0.00 | 49 | 1013.1 |
| 20260508194556 | 15 | 234 | 3.2 | 9.7 | 0.00 | 0.00 | 0.00 | 50 | 1013.2 |
| 20260508194056 | 15 | 207 | 4.8 | 12.9 | 0.00 | 0.00 | 0.00 | 49 | 1013.2 |
| 20260508193559 | 15 | 0 | 3.2 | 14.5 | 0.00 | 0.00 | 0.00 | 47 | 1013.2 |
| 20260508193554 | 15 | 0 | 4.8 | 12.9 | 0.00 | 0.00 | 0.00 | 48 | 1013.2 |
| 20260508192555 | 15 | 182 | 4.8 | 16.1 | 0.00 | 0.00 | 0.00 | 47 | 1013.3 |
| 20260508192054 | 15 | 0 | 4.8 | 16.1 | 0.00 | 0.00 | 0.00 | 48 | 1013.5 |
| 20260508191554 | 15 | 0 | 6.4 | 17.7 | 0.00 | 0.00 | 0.00 | 48 | 1013.4 |
| 20260508191052 | 15 | 0 | 8.0 | 25.7 | 0.00 | 0.00 | 0.00 | 48 | 1013.4 |
| 20260508190828 | 15 | 0 | 9.7 | 25.7 | 0.00 | 0.00 | 0.00 | 47 | 1013.5 |
| 20260508190053 | 15 | 0 | 8.0 | 19.3 | 0.00 | 0.00 | 0.00 | 47 | 1013.6 |
| 20260508185821 | 15 | 0 | 9.7 | 20.9 | 0.00 | 0.00 | 0.00 | 47 | 1013.8 |
| 20260508185321 | 15 | 232 | 9.7 | 22.5 | 0.00 | 0.00 | 0.00 | 48 | 1014.0 |
| 20260508184548 | 15 | 0 | 8.0 | 22.5 | 0.00 | 0.00 | 0.00 | 47 | 1013.9 |
| 20260508184048 | 15 | 239 | 6.4 | 17.7 | 0.00 | 0.00 | 0.00 | 48 | 1013.7 |
| 20260508183548 | 15 | 0 | 6.4 | 20.9 | 0.00 | 0.00 | 0.00 | 47 | 1013.9 |
| 20260508183045 | 16 | 242 | 8.0 | 20.9 | 0.00 | 0.00 | 0.00 | 48 | 1013.8 |
| 20260508182817 | 16 | 0 | 8.0 | 20.9 | 0.00 | 0.00 | 0.00 | 47 | 1013.8 |
| 20260508182049 | 16 | 0 | 9.7 | 22.5 | 0.00 | 0.00 | 0.00 | 46 | 1013.7 |
| 20260508182045 | 16 | 0 | 8.0 | 22.5 | 0.00 | 0.00 | 0.00 | 47 | 1013.7 |
| 20260508181045 | 16 | 0 | 8.0 | 22.5 | 0.00 | 0.00 | 0.00 | 47 | 1013.6 |
| 20260508180546 | 16 | 0 | 8.0 | 17.7 | 0.00 | 0.00 | 0.00 | 47 | 1013.6 |
| 20260508180045 | 16 | 0 | 9.7 | 22.5 | 0.00 | 0.00 | 0.00 | 47 | 1013.6 |
| 20260508175816 | 16 | 0 | 8.0 | 22.5 | 0.00 | 0.00 | 0.00 | 47 | 1013.8 |
| 20260508175043 | 16 | 0 | 8.0 | 20.9 | 0.00 | 0.00 | 0.00 | 47 | 1013.8 |
| 20260508174542 | 16 | 0 | 8.0 | 20.9 | 0.00 | 0.00 | 0.00 | 47 | 1013.9 |
| 20260508174041 | 16 | 0 | 6.4 | 16.1 | 0.00 | 0.00 | 0.00 | 48 | 1013.8 |
| 20260508173541 | 16 | 227 | 6.4 | 16.1 | 0.00 | 0.00 | 0.00 | 46 | 1014.1 |
| 20260508173313 | 16 | 0 | 8.0 | 22.5 | 0.00 | 0.00 | 0.00 | 47 | 1014.2 |
| 20260508172538 | 16 | 336 | 9.7 | 22.5 | 0.00 | 0.00 | 0.00 | 45 | 1014.2 |
| 20260508172038 | 16 | 0 | 9.7 | 22.5 | 0.00 | 0.00 | 0.00 | 45 | 1014.2 |
| 20260508171540 | 16 | 282 | 9.7 | 22.5 | 0.00 | 0.00 | 0.00 | 46 | 1014.3 |
| 20260508171039 | 16 | 267 | 9.7 | 20.9 | 0.00 | 0.00 | 0.00 | 46 | 1014.4 |
| 20260508170538 | 16 | 0 | 8.0 | 19.3 | 0.00 | 0.00 | 0.00 | 46 | 1014.4 |
| 20260508170038 | 16 | 0 | 8.0 | 20.9 | 0.00 | 0.00 | 0.00 | 48 | 1014.3 |
| 20260508165537 | 16 | 0 | 9.7 | 20.9 | 0.00 | 0.00 | 0.00 | 46 | 1014.4 |
| 20260508165037 | 16 | 281 | 11.3 | 22.5 | 0.00 | 0.00 | 0.00 | 45 | 1014.5 |
| 20260508164537 | 16 | 38 | 9.7 | 22.5 | 0.00 | 0.00 | 0.00 | 45 | 1014.6 |
| 20260508164036 | 16 | 0 | 8.0 | 24.1 | 0.00 | 0.00 | 0.00 | 44 | 1014.6 |
| 20260508163535 | 16 | 0 | 8.0 | 24.1 | 0.00 | 0.00 | 0.00 | 45 | 1014.6 |
| 20260508163305 | 16 | 0 | 8.0 | 22.5 | 0.00 | 0.00 | 0.00 | 45 | 1014.8 |
| 20260508162534 | 16 | 0 | 8.0 | 22.5 | 0.00 | 0.00 | 0.00 | 44 | 1014.6 |
| 20260508162034 | 16 | 0 | 8.0 | 20.9 | 0.00 | 0.00 | 0.00 | 45 | 1014.6 |
| 20260508161805 | 16 | 0 | 8.0 | 27.4 | 0.00 | 0.00 | 0.00 | 44 | 1014.5 |
| 20260508161032 | 16 | 35 | 11.3 | 27.4 | 0.00 | 0.00 | 0.00 | 43 | 1014.8 |
| 20260508160532 | 16 | 0 | 11.3 | 30.6 | 0.00 | 0.00 | 0.00 | 42 | 1014.8 |
| 20260508160032 | 16 | 0 | 8.0 | 30.6 | 0.00 | 0.00 | 0.00 | 43 | 1015.0 |
| 20260508155531 | 17 | 0 | 9.7 | 24.1 | 0.00 | 0.00 | 0.00 | 45 | 1014.9 |
| 20260508155031 | 16 | 0 | 11.3 | 24.1 | 0.00 | 0.00 | 0.00 | 43 | 1015.0 |
| 20260508154531 | 16 | 0 | 9.7 | 24.1 | 0.00 | 0.00 | 0.00 | 44 | 1014.9 |
| 20260508154030 | 16 | 248 | 9.7 | 30.6 | 0.00 | 0.00 | 0.00 | 44 | 1015.0 |
| 20260508153530 | 16 | 0 | 11.3 | 30.6 | 0.00 | 0.00 | 0.00 | 45 | 1015.0 |
| 20260508153030 | 16 | 0 | 9.7 | 25.7 | 0.00 | 0.00 | 0.00 | 44 | 1015.0 |
| 20260508152527 | 16 | 0 | 9.7 | 22.5 | 0.00 | 0.00 | 0.00 | 43 | 1015.0 |
| 20260508152028 | 16 | 0 | 9.7 | 22.5 | 0.00 | 0.00 | 0.00 | 47 | 1015.1 |
| 20260508151528 | 16 | 0 | 8.0 | 22.5 | 0.00 | 0.00 | 0.00 | 49 | 1015.0 |
| 20260508151028 | 16 | 0 | 8.0 | 19.3 | 0.00 | 0.00 | 0.00 | 46 | 1015.1 |
| 20260508150527 | 15 | 0 | 11.3 | 24.1 | 0.00 | 0.00 | 0.00 | 45 | 1015.3 |
| 20260508150027 | 15 | 0 | 12.9 | 30.6 | 0.00 | 0.00 | 0.00 | 49 | 1015.3 |
| 20260508145524 | 15 | 0 | 11.3 | 30.6 | 0.00 | 0.00 | 0.00 | 46 | 1015.4 |
| 20260508145023 | 15 | 0 | 9.7 | 22.5 | 0.00 | 0.00 | 0.00 | 46 | 1015.3 |
| 20260508144525 | 15 | 0 | 8.0 | 22.5 | 0.00 | 0.00 | 0.00 | 45 | 1015.3 |
| 20260508144023 | 15 | 0 | 8.0 | 20.9 | 0.00 | 0.00 | 0.00 | 49 | 1015.3 |
| 20260508143522 | 14 | 0 | 8.0 | 20.9 | 0.00 | 0.00 | 0.00 | 49 | 1015.3 |
| 20260508143253 | 14 | 0 | 8.0 | 17.7 | 0.00 | 0.00 | 0.00 | 48 | 1015.3 |
| 20260508142522 | 14 | 229 | 9.7 | 17.7 | 0.00 | 0.00 | 0.00 | 50 | 1015.2 |
| 20260508142019 | 14 | 0 | 9.7 | 17.7 | 0.00 | 0.00 | 0.00 | 52 | 1015.2 |
| 20260508141524 | 13 | 194 | 9.7 | 20.9 | 0.00 | 0.00 | 0.00 | 54 | 1015.1 |
| 20260508141021 | 13 | 0 | 9.7 | 20.9 | 0.00 | 0.00 | 0.00 | 53 | 1015.1 |
| 20260508140524 | 12 | 0 | 9.7 | 19.3 | 0.00 | 0.00 | 0.00 | 54 | 1015.1 |
| 20260508140519 | 13 | 0 | 9.7 | 20.9 | 0.00 | 0.00 | 0.00 | 54 | 1015.2 |
| 20260508135748 | 12 | 0 | 9.7 | 19.3 | 0.00 | 0.00 | 0.00 | 57 | 1015.1 |
| 20260508135018 | 11 | 0 | 8.0 | 17.7 | 0.00 | 0.00 | 0.00 | 56 | 1015.2 |
| 20260508134515 | 11 | 0 | 8.0 | 17.7 | 0.00 | 0.00 | 0.00 | 60 | 1015.2 |
| 20260508134020 | 10 | 189 | 9.7 | 19.3 | 0.00 | 0.00 | 0.00 | 59 | 1015.3 |
| 20260508134015 | 10 | 0 | 9.7 | 19.3 | 0.00 | 0.00 | 0.00 | 58 | 1015.2 |
| 20260508133015 | 10 | 0 | 9.7 | 17.7 | 0.00 | 0.00 | 0.00 | 58 | 1015.3 |
| 20260508132512 | 10 | 0 | 9.7 | 19.3 | 0.00 | 0.00 | 0.00 | 58 | 1015.3 |
| 20260508132012 | 10 | 0 | 8.0 | 19.3 | 0.00 | 0.00 | 0.00 | 59 | 1015.3 |
| 20260508131513 | 10 | 0 | 9.7 | 19.3 | 0.00 | 0.00 | 0.00 | 59 | 1015.2 |
| 20260508131010 | 10 | 211 | 9.7 | 19.3 | 0.00 | 0.00 | 0.00 | 60 | 1015.0 |
| 20260508130511 | 9 | 0 | 9.7 | 20.9 | 0.00 | 0.00 | 0.00 | 61 | 1015.1 |
| 20260508130009 | 9 | 0 | 12.9 | 20.9 | 0.00 | 0.00 | 0.00 | 61 | 1015.0 |
| 20260508125738 | 8 | 0 | 12.9 | 22.5 | 0.00 | 0.00 | 0.00 | 62 | 1015.1 |
| 20260508125009 | 8 | 0 | 12.9 | 24.1 | 0.00 | 0.00 | 0.00 | 62 | 1015.1 |
| 20260508124509 | 8 | 0 | 12.9 | 24.1 | 0.00 | 0.00 | 0.00 | 62 | 1014.9 |
| 20260508124008 | 8 | 202 | 11.3 | 19.3 | 0.00 | 0.00 | 0.00 | 62 | 1014.8 |
| 20260508123508 | 7 | 0 | 12.9 | 20.9 | 0.00 | 0.00 | 0.00 | 63 | 1014.8 |
| 20260508123006 | 7 | 0 | 12.9 | 22.5 | 0.00 | 0.00 | 0.00 | 63 | 1014.9 |
| 20260508122511 | 7 | 0 | 11.3 | 20.9 | 0.00 | 0.00 | 0.00 | 63 | 1014.8 |
| 20260508122505 | 7 | 0 | 12.9 | 22.5 | 0.00 | 0.00 | 0.00 | 63 | 1014.8 |
| 20260508121504 | 7 | 0 | 9.7 | 19.3 | 0.00 | 0.00 | 0.00 | 63 | 1014.5 |
| 20260508121003 | 7 | 0 | 11.3 | 20.9 | 0.00 | 0.00 | 0.00 | 63 | 1014.5 |
| 20260508120735 | 7 | 0 | 12.9 | 22.5 | 0.00 | 0.00 | 0.00 | 63 | 1014.4 |
| 20260508120002 | 7 | 0 | 11.3 | 22.5 | 0.00 | 0.00 | 0.00 | 63 | 1014.4 |
| 20260508115503 | 7 | 0 | 11.3 | 22.5 | 0.00 | 0.00 | 0.00 | 63 | 1014.3 |
| 20260508115000 | 7 | 0 | 11.3 | 22.5 | 0.00 | 0.00 | 0.00 | 64 | 1014.4 |
| 20260508114732 | 6 | 0 | 11.3 | 22.5 | 0.00 | 0.00 | 0.00 | 64 | 1014.8 |
| 20260508114007 | 6 | 0 | 11.3 | 22.5 | 0.00 | 0.00 | 0.00 | 63 | 1014.8 |
| 20260508113959 | 6 | 0 | 9.7 | 17.7 | 0.00 | 0.00 | 0.00 | 63 | 1014.6 |
| 20260508112957 | 6 | 0 | 9.7 | 17.7 | 0.00 | 0.00 | 0.00 | 63 | 1014.6 |
| 20260508112727 | 6 | 0 | 9.7 | 17.7 | 0.00 | 0.00 | 0.00 | 63 | 1014.6 |
| 20260508111957 | 6 | 0 | 9.7 | 17.7 | 0.00 | 0.00 | 0.00 | 63 | 1014.4 |
| 20260508111455 | 6 | 0 | 8.0 | 16.1 | 0.00 | 0.00 | 0.00 | 63 | 1014.4 |
| 20260508110955 | 6 | 0 | 8.0 | 17.7 | 0.00 | 0.00 | 0.00 | 63 | 1014.4 |
| 20260508110449 | 6 | 0 | 8.0 | 17.7 | 0.00 | 0.00 | 0.00 | 63 | 1014.3 |
| 20260508105949 | 6 | 0 | 9.7 | 19.3 | 0.00 | 0.00 | 0.00 | 63 | 1014.3 |
| 20260508105451 | 6 | 215 | 9.7 | 19.3 | 0.00 | 0.00 | 0.00 | 63 | 1014.4 |
| 20260508104949 | 6 | 0 | 9.7 | 20.9 | 0.00 | 0.00 | 0.00 | 63 | 1014.4 |
| 20260508104449 | 6 | 0 | 9.7 | 20.9 | 0.00 | 0.00 | 0.00 | 64 | 1014.3 |
| 20260508103948 | 6 | 0 | 9.7 | 17.7 | 0.00 | 0.00 | 0.00 | 64 | 1014.4 |
| 20260508103443 | 5 | 0 | 9.7 | 17.7 | 0.00 | 0.00 | 0.00 | 64 | 1014.2 |
| 20260508102942 | 5 | 0 | 9.7 | 17.7 | 0.00 | 0.00 | 0.00 | 64 | 1014.2 |
| 20260508102441 | 5 | 0 | 8.0 | 16.1 | 0.00 | 0.00 | 0.00 | 64 | 1014.2 |
| 20260508101942 | 5 | 0 | 6.4 | 14.5 | 0.00 | 0.00 | 0.00 | 64 | 1014.3 |
| 20260508101443 | 5 | 0 | 6.4 | 16.1 | 0.00 | 0.00 | 0.00 | 64 | 1014.1 |
| 20260508100943 | 5 | 0 | 6.4 | 16.1 | 0.00 | 0.00 | 0.00 | 64 | 1014.1 |
| 20260508100716 | 5 | 0 | 6.4 | 14.5 | 0.00 | 0.00 | 0.00 | 63 | 1014.0 |
| 20260508100441 | 5 | 0 | 6.4 | 12.9 | 0.00 | 0.00 | 0.00 | 63 | 1014.0 |
| 20260508095441 | 5 | 219 | 6.4 | 14.5 | 0.00 | 0.00 | 0.00 | 63 | 1013.9 |
| 20260508094937 | 5 | 0 | 8.0 | 17.7 | 0.00 | 0.00 | 0.00 | 64 | 1013.9 |
| 20260508094702 | 5 | 0 | 8.0 | 17.7 | 0.00 | 0.00 | 0.00 | 64 | 1013.9 |
| 20260508093930 | 5 | 0 | 8.0 | 14.5 | 0.00 | 0.00 | 0.00 | 65 | 1013.9 |
| 20260508093430 | 5 | 0 | 6.4 | 16.1 | 0.00 | 0.00 | 0.00 | 67 | 1014.0 |
| 20260508092928 | 4 | 0 | 6.4 | 16.1 | 0.00 | 0.00 | 0.00 | 68 | 1013.9 |
| 20260508092428 | 3 | 0 | 4.8 | 12.9 | 0.00 | 0.00 | 0.00 | 69 | 1013.9 |
| 20260508091928 | 3 | 0 | 3.2 | 8.0 | 0.00 | 0.00 | 0.00 | 70 | 1014.0 |
| 20260508091429 | 3 | 0 | 3.2 | 4.8 | 0.00 | 0.00 | 0.00 | 70 | 1014.0 |
| 20260508090929 | 3 | 0 | 1.6 | 4.8 | 0.00 | 0.00 | 0.00 | 70 | 1014.1 |
| 20260508090924 | 3 | 0 | 1.6 | 4.8 | 0.00 | 0.00 | 0.00 | 70 | 1013.9 |
| 20260508085925 | 3 | 170 | 1.6 | 6.4 | 0.00 | 0.00 | 0.00 | 70 | 1014.0 |
| 20260508085654 | 3 | 170 | 1.6 | 6.4 | 0.00 | 0.00 | 0.00 | 70 | 1014.1 |
| 20260508084923 | 3 | 169 | 1.6 | 3.2 | 0.00 | 0.00 | 0.00 | 70 | 1014.2 |
| 20260508084425 | 3 | 169 | 1.6 | 3.2 | 0.00 | 0.00 | 0.00 | 70 | 1014.0 |
| 20260508083920 | 3 | 169 | 1.6 | 3.2 | 0.00 | 0.00 | 0.00 | 70 | 1013.9 |
| 20260508083420 | 3 | 169 | 0.0 | 3.2 | 0.00 | 0.00 | 0.00 | 70 | 1013.9 |
| 20260508083152 | 3 | 169 | 1.6 | 3.2 | 0.00 | 0.00 | 0.00 | 70 | 1014.0 |
| 20260508082420 | 3 | 169 | 3.2 | 6.4 | 0.00 | 0.00 | 0.00 | 70 | 1014.0 |
| 20260508081919 | 3 | 169 | 1.6 | 6.4 | 0.00 | 0.00 | 0.00 | 70 | 1013.8 |
| 20260508081421 | 3 | 169 | 1.6 | 6.4 | 0.00 | 0.00 | 0.00 | 70 | 1013.9 |
| 20260508080915 | 3 | 169 | 3.2 | 8.0 | 0.00 | 0.00 | 0.00 | 70 | 1013.9 |
| 20260508080416 | 3 | 169 | 4.8 | 8.0 | 0.00 | 0.00 | 0.00 | 70 | 1013.9 |
| 20260508075915 | 3 | 169 | 4.8 | 8.0 | 0.00 | 0.00 | 0.00 | 70 | 1014.0 |
| 20260508075415 | 3 | 0 | 3.2 | 6.4 | 0.00 | 0.00 | 0.00 | 70 | 1014.0 |
| 20260508074916 | 3 | 171 | 3.2 | 6.4 | 0.00 | 0.00 | 0.00 | 70 | 1014.1 |
| 20260508074416 | 3 | 171 | 1.6 | 4.8 | 0.00 | 0.00 | 0.00 | 70 | 1014.2 |
| 20260508073911 | 3 | 171 | 1.6 | 3.2 | 0.00 | 0.00 | 0.00 | 70 | 1014.1 |
| 20260508073410 | 3 | 171 | 1.6 | 3.2 | 0.00 | 0.00 | 0.00 | 70 | 1014.1 |
| 20260508073155 | 3 | 171 | 1.6 | 3.2 | 0.00 | 0.00 | 0.00 | 71 | 1014.1 |
| 20260508072410 | 3 | 171 | 1.6 | 3.2 | 0.00 | 0.00 | 0.00 | 71 | 1014.0 |
| 20260508071910 | 3 | 171 | 1.6 | 3.2 | 0.00 | 0.00 | 0.00 | 71 | 1014.6 |
| 20260508071413 | 3 | 171 | 1.6 | 6.4 | 0.00 | 0.00 | 0.00 | 71 | 1014.1 |
| 20260508070904 | 3 | 171 | 1.6 | 6.4 | 0.00 | 0.00 | 0.00 | 71 | 1014.1 |
| 20260508070403 | 3 | 171 | 1.6 | 6.4 | 0.00 | 0.00 | 0.00 | 71 | 1014.1 |
| 20260508065903 | 3 | 171 | 1.6 | 6.4 | 0.00 | 0.00 | 0.00 | 71 | 1014.0 |
| 20260508065403 | 3 | 0 | 1.6 | 4.8 | 0.00 | 0.00 | 0.00 | 71 | 1014.1 |
| 20260508064902 | 3 | 0 | 1.6 | 4.8 | 0.00 | 0.00 | 0.00 | 71 | 1014.1 |
| 20260508064402 | 3 | 313 | 0.0 | 1.6 | 0.00 | 0.00 | 0.00 | 71 | 1014.2 |
| 20260508063857 | 3 | 313 | 0.0 | 3.2 | 0.00 | 0.00 | 0.00 | 71 | 1014.2 |
| 20260508063358 | 3 | 313 | 0.0 | 3.2 | 0.00 | 0.00 | 0.00 | 71 | 1014.2 |
| 20260508063131 | 3 | 313 | 0.0 | 3.2 | 0.00 | 0.00 | 0.00 | 71 | 1014.2 |
| 20260508062628 | 3 | 313 | 1.6 | 3.2 | 0.00 | 0.00 | 0.00 | 71 | 1014.3 |
| 20260508061900 | 3 | 0 | 0.0 | 3.2 | 0.00 | 0.00 | 0.00 | 71 | 1014.3 |
| 20260508061855 | 3 | 313 | 1.6 | 3.2 | 0.00 | 0.00 | 0.00 | 71 | 1014.3 |
| 20260508060852 | 3 | 314 | 0.0 | 0.0 | 0.00 | 0.00 | 0.00 | 71 | 1014.1 |
| 20260508060352 | 3 | 314 | 0.0 | 1.6 | 0.00 | 0.00 | 0.00 | 71 | 1014.2 |
| 20260508055854 | 4 | 0 | 1.6 | 3.2 | 0.00 | 0.00 | 0.00 | 71 | 1014.5 |
| 20260508055849 | 4 | 314 | 1.6 | 3.2 | 0.00 | 0.00 | 0.00 | 71 | 1014.3 |
| 20260508055121 | 4 | 0 | 0.0 | 3.2 | 0.00 | 0.00 | 0.00 | 70 | 1014.5 |
| 20260508054350 | 4 | 0 | 0.0 | 0.0 | 0.00 | 0.00 | 0.00 | 70 | 1014.5 |
| 20260508054121 | 4 | 314 | 0.0 | 0.0 | 0.00 | 0.00 | 0.00 | 70 | 1014.6 |
| 20260508053346 | 4 | 315 | 0.0 | 0.0 | 0.00 | 0.00 | 0.00 | 70 | 1014.6 |
| 20260508052844 | 4 | 315 | 0.0 | 0.0 | 0.00 | 0.00 | 0.00 | 70 | 1014.6 |
| 20260508052345 | 5 | 315 | 0.0 | 0.0 | 0.00 | 0.00 | 0.00 | 69 | 1014.8 |
| 20260508051844 | 5 | 316 | 0.0 | 0.0 | 0.00 | 0.00 | 0.00 | 68 | 1014.6 |
| 20260508051342 | 5 | 315 | 0.0 | 0.0 | 0.00 | 0.00 | 0.00 | 68 | 1014.6 |
| 20260508050841 | 5 | 314 | 0.0 | 0.0 | 0.00 | 0.00 | 0.00 | 67 | 1014.6 |
| 20260508050335 | 5 | 314 | 0.0 | 0.0 | 0.00 | 0.00 | 0.00 | 67 | 1014.6 |
| 20260508045833 | 5 | 315 | 0.0 | 0.0 | 0.00 | 0.00 | 0.00 | 67 | 1014.6 |
| 20260508045332 | 5 | 315 | 0.0 | 0.0 | 0.00 | 0.00 | 0.00 | 67 | 1014.5 |
| 20260508044831 | 5 | 315 | 0.0 | 0.0 | 0.00 | 0.00 | 0.00 | 67 | 1014.5 |
| 20260508044330 | 6 | 0 | 0.0 | 0.0 | 0.00 | 0.00 | 0.00 | 66 | 1014.6 |
| 20260508043824 | 6 | 0 | 0.0 | 0.0 | 0.00 | 0.00 | 0.00 | 66 | 1014.5 |
| 20260508043322 | 6 | 0 | 0.0 | 0.0 | 0.00 | 0.00 | 0.00 | 66 | 1014.5 |
| 20260508042820 | 6 | 0 | 0.0 | 0.0 | 0.00 | 0.00 | 0.00 | 66 | 1014.4 |
| 20260508042318 | 6 | 0 | 0.0 | 0.0 | 0.00 | 0.00 | 0.00 | 65 | 1014.4 |
| 20260508041817 | 6 | 0 | 0.0 | 0.0 | 0.00 | 0.00 | 0.00 | 64 | 1014.2 |
| 20260508041316 | 6 | 0 | 0.0 | 0.0 | 0.00 | 0.00 | 0.00 | 63 | 1014.3 |
| 20260508040814 | 7 | 0 | 0.0 | 0.0 | 0.00 | 0.00 | 0.00 | 63 | 1014.2 |
| 20260508040314 | 7 | 0 | 0.0 | 0.0 | 0.00 | 0.00 | 0.00 | 62 | 1014.1 |
| 20260508035814 | 7 | 0 | 0.0 | 0.0 | 0.00 | 0.00 | 0.00 | 62 | 1014.1 |
| 20260508035313 | 7 | 0 | 0.0 | 0.0 | 0.00 | 0.00 | 0.00 | 61 | 1014.3 |
| 20260508034811 | 7 | 0 | 0.0 | 0.0 | 0.00 | 0.00 | 0.00 | 61 | 1014.2 |
| 20260508034304 | 7 | 0 | 0.0 | 0.0 | 0.00 | 0.00 | 0.00 | 59 | 1014.2 |
| 20260508033802 | 8 | 0 | 0.0 | 0.0 | 0.00 | 0.00 | 0.00 | 58 | 1014.2 |
| 20260508033301 | 8 | 0 | 0.0 | 0.0 | 0.00 | 0.00 | 0.00 | 58 | 1014.2 |
| 20260508032758 | 8 | 0 | 0.0 | 0.0 | 0.00 | 0.00 | 0.00 | 57 | 1014.1 |
| 20260508032257 | 8 | 0 | 0.0 | 0.0 | 0.00 | 0.00 | 0.00 | 57 | 1014.0 |
| 20260508031750 | 8 | 0 | 0.0 | 0.0 | 0.00 | 0.00 | 0.00 | 56 | 1014.0 |
| 20260508031248 | 8 | 0 | 0.0 | 0.0 | 0.00 | 0.00 | 0.00 | 55 | 1014.0 |
| 20260508031018 | 9 | 0 | 0.0 | 0.0 | 0.00 | 0.00 | 0.00 | 56 | 1014.0 |
| 20260508030245 | 9 | 0 | 0.0 | 0.0 | 0.00 | 0.00 | 0.00 | 55 | 1014.0 |
| 20260508025744 | 9 | 0 | 0.0 | 0.0 | 0.00 | 0.00 | 0.00 | 54 | 1013.9 |
| 20260508025240 | 10 | 0 | 0.0 | 1.6 | 0.00 | 0.00 | 0.00 | 53 | 1014.0 |
| 20260508025236 | 9 | 0 | 0.0 | 0.0 | 0.00 | 0.00 | 0.00 | 53 | 1013.9 |
| 20260508024238 | 10 | 0 | 0.0 | 0.0 | 0.00 | 0.00 | 0.00 | 52 | 1013.8 |
| 20260508024233 | 10 | 0 | 0.0 | 1.6 | 0.00 | 0.00 | 0.00 | 53 | 1013.9 |
| 20260508023231 | 10 | 314 | 0.0 | 0.0 | 0.00 | 0.00 | 0.00 | 52 | 1013.7 |
| 20260508022726 | 10 | 0 | 0.0 | 1.6 | 0.00 | 0.00 | 0.00 | 51 | 1013.8 |
| 20260508022224 | 10 | 315 | 0.0 | 3.2 | 0.00 | 0.00 | 0.00 | 51 | 1013.6 |
| 20260508021726 | 11 | 0 | 1.6 | 3.2 | 0.00 | 0.00 | 0.00 | 50 | 1013.5 |
| 20260508021458 | 11 | 0 | 1.6 | 4.8 | 0.00 | 0.00 | 0.00 | 50 | 1013.4 |
| 20260508021346 | 11 | 324 | 3.2 | 9.7 | 0.00 | 0.00 | 0.00 | 49 | 1013.2 |
| 20260508020724 | 11 | 316 | 1.6 | 6.4 | 0.00 | 0.00 | 0.00 | 49 | 1013.2 |
| 20260508015717 | 11 | 0 | 1.6 | 9.7 | 0.00 | 0.00 | 0.00 | 48 | 1013.1 |
| 20260508015218 | 11 | 0 | 1.6 | 9.7 | 0.00 | 0.00 | 0.00 | 47 | 1013.2 |
| 20260508014717 | 11 | 302 | 3.2 | 6.4 | 0.00 | 0.00 | 0.00 | 47 | 1013.1 |
| 20260508014217 | 11 | 0 | 4.8 | 12.9 | 0.00 | 0.00 | 0.00 | 47 | 1013.1 |
| 20260508013718 | 11 | 0 | 6.4 | 16.1 | 0.00 | 0.00 | 0.00 | 46 | 1013.1 |
| 20260508013215 | 11 | 297 | 4.8 | 16.1 | 0.00 | 0.00 | 0.00 | 45 | 1013.0 |
| 20260508012714 | 12 | 0 | 3.2 | 9.7 | 0.00 | 0.00 | 0.00 | 45 | 1013.0 |
| 20260508012446 | 12 | 0 | 3.2 | 9.7 | 0.00 | 0.00 | 0.00 | 45 | 1012.8 |
| 20260508011714 | 12 | 0 | 3.2 | 9.7 | 0.00 | 0.00 | 0.00 | 44 | 1012.7 |
| 20260508011213 | 12 | 0 | 3.2 | 9.7 | 0.00 | 0.00 | 0.00 | 43 | 1012.6 |
| 20260508010714 | 12 | 340 | 3.2 | 14.5 | 0.00 | 0.00 | 0.00 | 44 | 1012.6 |
| 20260508010215 | 12 | 19 | 4.8 | 14.5 | 0.00 | 0.00 | 0.00 | 43 | 1012.6 |
| 20260508005714 | 12 | 0 | 4.8 | 14.5 | 0.00 | 0.00 | 0.00 | 43 | 1012.6 |
| 20260508005213 | 12 | 205 | 1.6 | 8.0 | 0.00 | 0.00 | 0.00 | 44 | 1012.5 |
| 20260508004944 | 12 | 0 | 1.6 | 8.0 | 0.00 | 0.00 | 0.00 | 44 | 1012.4 |
| 20260508004214 | 12 | 305 | 1.6 | 8.0 | 0.00 | 0.00 | 0.00 | 43 | 1012.4 |
| 20260508003712 | 12 | 259 | 1.6 | 14.5 | 0.00 | 0.00 | 0.00 | 44 | 1012.3 |
| 20260508003210 | 13 | 290 | 3.2 | 14.5 | 0.00 | 0.00 | 0.00 | 43 | 1012.2 |
| 20260508002710 | 13 | 0 | 3.2 | 9.7 | 0.00 | 0.00 | 0.00 | 43 | 1012.3 |
| 20260508002211 | 13 | 0 | 3.2 | 9.7 | 0.00 | 0.00 | 0.00 | 43 | 1012.2 |
| 20260508001707 | 13 | 232 | 3.2 | 9.7 | 0.00 | 0.00 | 0.00 | 43 | 1012.0 |
| 20260508001208 | 13 | 0 | 3.2 | 6.4 | 0.00 | 0.00 | 0.00 | 44 | 1012.0 |
| 20260508000709 | 13 | 0 | 3.2 | 6.4 | 0.00 | 0.00 | 0.00 | 43 | 1012.0 |
| 20260508000205 | 13 | 67 | 3.2 | 8.0 | 0.00 | 0.00 | 0.00 | 42 | 1011.9 |
| 20260507235704 | 13 | 0 | 3.2 | 8.0 | 0.00 | 0.00 | 0.00 | 42 | 1012.0 |
| 20260507235204 | 13 | 0 | 3.2 | 8.0 | 0.00 | 0.00 | 0.00 | 42 | 1011.9 |
| 20260507234933 | 13 | 0 | 3.2 | 8.0 | 0.00 | 0.00 | 0.00 | 41 | 1011.8 |
| 20260507234201 | 14 | 0 | 3.2 | 12.9 | 0.00 | 0.00 | 0.00 | 42 | 1011.8 |
| 20260507233657 | 14 | 342 | 4.8 | 12.9 | 0.00 | 0.00 | 0.00 | 40 | 1011.9 |
| 20260507233428 | 14 | 0 | 4.8 | 12.9 | 0.00 | 0.00 | 0.00 | 41 | 1011.7 |
| 20260507232656 | 14 | 0 | 4.8 | 12.9 | 0.00 | 0.00 | 0.00 | 41 | 1011.7 |
| 20260507232157 | 14 | 0 | 4.8 | 14.5 | 0.00 | 0.00 | 0.00 | 39 | 1011.7 |
| 20260507231656 | 14 | 0 | 4.8 | 14.5 | 0.00 | 0.00 | 0.00 | 39 | 1011.6 |
| 20260507231153 | 14 | 9 | 8.0 | 19.3 | 0.00 | 0.00 | 0.00 | 39 | 1011.6 |
| 20260507230654 | 15 | 0 | 9.7 | 19.3 | 0.00 | 0.00 | 0.00 | 39 | 1011.7 |
| 20260507230156 | 15 | 0 | 6.4 | 20.9 | 0.00 | 0.00 | 0.00 | 38 | 1011.6 |